Probability
0 0 0 0 0 0 0 0 0 0 0 0 0 0 0 0 0 0 0 0 0 0 1 4 13 35 65 82 82 74 62 49 36 24 15 9 5 2 1 0 1 1 1 2
0 0 0 0 0 0 0 0 0 0 0 0 0 0 0 0 0 0 0 0 0 0 0 2 8 26 52 67 68 65 60 52 41 29 19 11 5 1 1 1 2 2 1 2
0 0 0 0 0 0 0 0 0 0 0 0 0 0 0 0 0 0 0 0 0 0 0 0 3 13 28 41 47 55 63 61 50 32 17 10 6 3 3 3 3 2 1 1
0 0 0 0 0 0 0 0 0 0 0 0 0 0 0 0 0 0 0 0 0 0 0 0 1 4 10 18 28 46 62 64 51 32 19 13 8 5 4 3 1 1 0 0
0 0 0 0 0 0 0 0 0 0 0 0 0 0 0 0 0 0 0 0 0 0 0 0 0 0 2 5 14 29 41 44 35 25 18 12 7 5 3 2 0 0 0 0
0 0 0 0 0 0 0 0 0 0 0 0 0 0 0 0 0 0 0 0 0 0 0 0 0 0 0 1 3 8 14 16 12 9 7 5 3 2 2 1 0 0 0 0
0 0 0 0 0 0 0 0 0 0 0 0 0 0 0 0 0 0 0 0 0 0 0 0 0 0 0 0 0 0 1 2 1 0 0 1 1 1 1 1 0 0 0 0
0 0 0 0 0 0 0 0 0 0 0 0 0 0 0 0 0 0 0 0 0 0 0 0 0 0 0 0 0 0 0 0 0 0 0 0 0 0 0 0 0 0 0 0
0 0 0 0 0 0 0 0 0 0 0 0 0 0 0 0 0 0 0 0 0 0 0 0 0 0 0 0 0 0 0 0 0 0 0 0 0 0 0 0 0 0 0 0
0 0 0 0 0 0 0 0 0 0 0 0 0 0 0 0 0 0 0 0 0 0 0 0 0 0 0 0 0 0 0 0 0 0 0 0 0 0 0 0 0 0 0 0
0 0 0 0 0 0 0 0 0 0 0 0 0 0 0 0 0 0 0 0 0 0 0 0 0 0 0 0 0 0 0 0 0 0 0 0 0 0 0 0 0 0 0 0
0 0 0 0 0 0 0 0 0 0 0 0 0 0 0 0 0 0 0 0 0 0 0 0 0 0 0 0 0 0 0 0 0 0 0 0 0 0 0 0 0 0 0 0
0 0 0 0 0 0 0 0 0 0 0 0 0 0 0 0 0 0 0 0 0 0 0 0 0 0 0 0 0 0 0 0 0 0 0 0 0 0 0 0 0 0 0 0
0 0 0 0 0 0 0 0 0 0 0 0 0 0 0 0 0 0 0 0 0 0 0 0 0 0 0 0 0 0 0 0 0 0 0 0 0 0 0 0 0 0 0 0
0 0 0 0 0 0 0 0 0 0 0 0 0 0 0 0 0 0 0 0 0 0 0 0 0 0 0 0 0 0 0 0 0 0 0 0 0 0 0 0 0 0 0 0
0 0 0 0 0 0 0 0 0 0 0 0 0 0 0 0 0 0 0 0 0 0 0 0 0 0 0 0 0 0 0 0 0 0 0 0 0 0 0 0 0 0 0 0
0 0 0 0 0 0 0 0 0 0 0 0 0 0 0 0 0 0 0 0 0 0 0 0 0 0 0 0 0 0 0 0 0 0 0 0 0 0 0 0 0 0 0 0
0 0 0 0 0 0 0 0 0 0 0 0 0 0 0 0 0 0 0 0 0 0 0 0 0 0 0 0 0 0 0 0 0 0 0 0 0 0 0 0 0 0 0 0
0 0 0 0 0 0 0 0 0 0 0 0 0 0 0 0 0 0 0 0 0 0 0 0 0 0 0 0 0 0 0 0 0 0 0 0 0 0 0 0 0 0 0 0
0 0 0 0 0 0 0 0 0 0 0 0 0 0 0 0 0 0 0 0 0 0 0 0 0 0 0 0 0 0 0 0 0 0 0 0 0 0 0 0 0 0 0 0
0 0 0 0 0 0 0 0 0 0 0 0 0 0 0 0 0 0 0 0 0 0 0 0 0 0 0 0 0 0 0 0 0 0 0 0 0 0 0 0 0 0 0 0
0 0 0 0 0 0 0 0 0 0 0 0 0 0 0 0 0 0 0 0 0 0 0 0 0 0 0 0 0 0 0 0 0 0 0 0 0 0 0 0 0 0 0 0
0 0 0 0 0 0 0 0 0 0 0 0 0 0 0 0 0 0 0 0 0 0 0 0 0 0 0 0 0 0 0 0 0 0 0 0 0 0 0 0 0 0 0 0
0 0 0 0 0 0 0 0 0 0 0 0 0 0 0 0 0 0 0 0 0 0 0 0 0 0 0 0 0 0 0 0 0 0 0 0 0 0 0 0 0 0 0 0
0 0 0 0 0 0 0 0 0 0 0 0 0 0 0 0 0 0 0 0 0 0 0 0 0 0 0 0 0 0 0 0 0 0 0 0 0 0 0 0 0 0 0 0
0 0 0 0 0 0 0 0 0 0 0 0 0 0 0 0 0 0 0 0 0 0 0 0 0 0 0 0 0 0 0 0 0 0 0 0 0 0 0 0 0 0 0 0
Wind_Speed
9 12 13 11 8 6 5 7 8 6 3 6 4 4 8 8 5 2 3 4 4 4 5 4 3 2 3 5 6 7 7 7 5 3 3 3 3 2 2 2 3 2 3 3
11 15 11 4 6 8 10 11 11 7 4 5 7 9 10 11 12 10 9 9 8 6 5 4 2 2 4 5 7 7 7 6 4 3 2 2 2 1 2 2 3 3 4 4
17 4 5 8 10 12 12 13 11 8 8 7 9 10 9 11 12 12 12 10 10 9 8 7 6 6 7 7 7 7 8 7 6 4 4 4 3 3 2 1 2 4 5 5
14 10 8 11 12 13 13 10 9 9 11 8 8 7 12 9 10 12 12 12 11 10 10 10 10 10 11 11 10 11 11 11 8 6 5 4 3 3 4 4 3 4 4 6
11 10 12 13 11 13 7 6 9 10 11 8 9 11 8 7 7 10 11 11 11 12 12 13 13 13 13 13 12 12 12 12 11 10 8 5 5 4 3 5 5 7 6 6
8 6 8 5 2 6 8 9 7 8 11 14 8 9 5 6 5 7 9 9 11 13 13 14 14 13 13 12 11 11 11 11 11 10 9 9 8 7 7 8 8 8 8 8
14 13 8 6 7 8 11 11 9 11 11 11 6 8 3 8 4 6 10 10 10 11 11 12 12 12 12 12 11 10 11 10 10 10 9 8 8 7 7 9 10 11 11 11
16 15 14 11 12 11 15 16 12 10 11 8 9 8 8 7 7 9 10 10 9 10 10 11 11 10 10 11 10 10 10 9 9 8 7 7 8 8 8 10 11 13 12 13
11 11 8 5 7 11 15 15 13 12 13 12 7 5 8 7 9 10 10 10 9 9 9 9 10 10 10 10 10 9 9 8 8 8 8 7 8 9 10 11 12 12 12 14
11 10 10 8 7 3 10 10 7 13 13 12 11 12 7 15 13 12 11 10 9 8 8 8 8 9 9 8 8 8 8 8 8 9 9 9 10 11 11 13 14 14 14 14
17 14 11 11 12 12 9 11 12 12 11 12 12 3 6 10 13 13 12 10 8 7 7 7 7 7 7 7 7 7 8 9 9 10 10 11 11 12 13 13 14 13 13 13
17 15 14 11 2 5 10 13 14 12 11 12 13 1 5 6 11 11 11 9 7 4 5 5 6 6 6 7 8 8 9 10 11 11 11 12 12 13 13 13 12 12 12 11
11 13 14 9 8 9 10 9 13 13 10 10 13 2 8 8 10 10 10 9 7 3 3 4 5 6 7 8 8 9 10 11 11 12 13 13 13 13 12 12 11 11 11 10
8 12 17 20 16 17 15 13 14 15 13 13 14 3 10 12 12 11 9 7 4 2 2 5 6 7 7 8 9 10 11 11 12 13 13 13 12 12 11 11 10 10 10 10
8 9 5 1 1 7 12 14 13 14 11 11 5 4 10 12 12 10 8 5 2 1 3 5 7 8 8 9 10 11 11 11 12 12 12 12 11 11 10 10 9 9 9 10
7 8 9 6 7 9 11 11 10 7 4 2 4 6 9 11 10 9 6 3 1 3 5 7 8 8 9 10 11 11 11 11 11 11 11 11 10 10 10 9 9 9 9 9
12 11 11 9 10 10 11 10 8 6 4 5 5 8 13 12 10 7 3 1 3 5 7 7 8 8 8 9 9 9 10 10 9 9 9 10 10 10 10 10 9 9 9 10
12 13 8 9 12 11 7 3 4 8 6 4 10 13 12 10 7 5 3 3 5 6 7 7 7 7 7 7 7 8 9 9 9 9 9 9 10 10 9 9 9 10 9 10
7 9 8 9 12 7 7 8 10 11 9 8 12 13 11 8 4 6 7 5 6 6 5 5 5 6 6 6 7 7 8 8 8 9 9 9 9 9 9 9 10 9 9 10
4 7 7 7 10 8 8 12 8 10 10 9 11 11 9 5 4 7 7 5 4 4 4 4 4 5 5 5 6 7 7 8 9 9 9 8 8 8 9 9 9 9 9 10
7 6 7 6 5 4 10 14 11 9 9 14 10 8 6 4 4 6 4 4 4 3 3 3 4 5 4 4 5 6 7 8 8 7 7 7 7 8 9 9 9 10 10 10
5 5 5 5 7 6 14 13 8 9 16 13 9 7 5 3 3 2 3 3 3 3 3 4 5 4 3 3 5 6 7 7 7 6 6 6 7 8 9 10 9 8 9 10
2 0 2 2 2 10 15 9 11 14 14 10 8 7 5 3 2 3 2 2 3 3 4 4 4 3 1 2 4 7 8 8 8 7 7 7 8 8 9 10 9 8 8 9
5 3 5 6 9 14 12 14 13 12 11 10 8 6 4 3 3 2 3 3 3 4 4 3 3 1 2 3 5 7 8 8 8 8 7 7 7 8 8 7 8 8 9 11
7 7 7 9 13 13 13 14 13 12 12 10 9 7 5 4 3 3 3 4 4 3 3 2 2 2 3 5 6 7 7 8 8 8 7 7 7 7 7 6 4 6 7 7
4 5 7 8 12 10 14 13 13 12 11 10 9 8 6 5 4 4 4 4 3 4 3 3 2 3 4 6 7 7 7 8 8 7 7 7 7 7 8 8 4 4 3 7
Wind_Direction
200 223 226 225 230 268 244 244 240 226 167 225 195 94 50 42 50 59 48 31 7 351 12 353 292 227 169 149 143 143 137 132 144 158 174 163 153 154 139 107 80 62 32 22
211 229 234 221 215 227 225 230 232 203 173 217 146 116 87 68 63 50 43 35 23 13 35 42 49 118 135 128 119 122 120 118 129 128 125 123 134 154 88 84 74 35 31 10
228 215 160 196 201 215 223 234 234 199 169 191 177 150 121 96 80 66 54 44 39 33 45 64 73 85 96 97 100 99 96 94 85 108 121 127 145 182 169 67 44 19 5 4
236 225 205 222 221 222 226 218 229 208 211 199 221 229 131 122 92 64 54 49 49 57 64 72 81 85 88 90 90 87 84 80 76 75 67 53 17 12 19 343 357 338 338 337
215 208 210 222 224 220 232 170 205 216 231 245 215 259 144 147 107 71 62 61 68 72 77 80 82 85 87 86 84 81 76 69 60 52 49 31 24 10 353 334 337 318 316 314
219 192 226 226 189 213 162 168 182 221 235 240 231 255 216 103 83 94 89 83 83 85 85 86 87 86 84 81 78 74 69 62 56 50 45 35 25 5 348 336 329 319 313 311
216 211 203 196 178 175 199 197 203 217 223 237 176 237 69 81 83 108 116 112 103 99 94 89 84 80 75 69 65 65 65 60 54 49 42 31 12 345 335 332 327 318 312 310
210 209 200 205 221 200 210 221 231 238 245 223 172 234 97 101 109 115 125 122 114 103 92 84 77 73 70 65 58 55 56 51 44 37 26 15 356 338 335 335 322 312 308 311
219 210 154 191 229 243 215 227 250 262 258 268 228 145 127 137 139 142 144 140 124 107 95 86 77 67 61 57 51 46 42 35 23 12 358 346 340 332 325 316 304 308 311 306
229 217 175 162 181 213 259 230 221 244 247 248 243 217 201 169 165 162 162 152 136 121 100 82 69 60 54 51 49 38 27 14 1 348 342 335 329 322 316 310 312 309 308 309
231 229 196 193 216 210 190 206 228 239 250 249 253 224 54 159 166 168 166 156 143 123 98 76 62 53 45 32 23 14 7 355 346 340 335 328 324 321 316 313 317 319 316 313
217 229 224 204 150 298 240 228 219 231 232 247 269 113 96 147 160 166 160 148 131 108 82 66 44 28 19 13 5 358 350 344 338 334 328 326 324 323 322 323 324 319 314 311
190 216 215 195 199 203 214 216 229 237 249 247 259 180 131 155 160 163 158 150 138 115 48 22 18 8 7 0 355 347 341 341 336 334 330 331 329 329 327 325 323 318 315 313
210 222 227 233 228 202 201 203 214 221 233 244 255 181 159 169 165 163 159 156 145 103 27 5 356 2 1 353 350 343 343 343 340 336 334 334 334 331 329 327 324 320 318 314
213 208 196 17 94 186 195 194 202 221 250 265 265 162 158 166 162 158 158 156 150 7 2 2 0 2 353 353 350 348 346 346 343 340 340 341 337 333 328 327 327 324 320 317
203 182 156 131 138 153 168 174 179 183 197 181 146 118 119 136 141 151 158 160 299 353 360 1 5 359 357 356 352 349 348 347 345 344 343 339 333 328 326 328 327 326 328 331
181 176 186 169 155 156 177 170 171 167 177 194 189 130 141 147 154 154 137 79 359 356 355 359 1 2 0 358 352 346 346 347 346 344 340 332 329 325 324 322 327 339 345 350
184 187 192 161 169 206 106 109 159 140 125 112 109 128 143 139 129 111 66 17 2 360 357 4 1 5 3 0 357 350 348 347 346 343 337 333 332 330 333 340 353 355 353 352
181 171 178 184 206 162 145 168 167 149 130 130 130 133 131 123 158 138 83 47 23 21 25 26 17 6 4 7 359 351 350 349 349 348 346 345 345 346 354 1 360 356 350 351
138 175 175 193 215 211 148 153 162 151 146 145 140 139 138 161 225 99 81 52 47 50 45 28 9 4 13 11 357 351 350 356 359 358 357 357 359 359 360 358 353 353 349 354
152 158 163 165 177 119 123 145 169 191 151 148 148 144 154 157 38 61 59 63 67 62 46 13 1 6 12 357 347 343 354 5 358 356 0 2 357 353 352 348 349 348 349 353
174 159 175 192 206 168 150 162 171 98 121 141 146 145 141 118 95 75 63 72 67 38 37 13 358 1 358 343 336 337 353 350 342 342 347 351 348 346 346 340 341 347 350 352
145 190 211 203 70 114 151 141 116 125 129 135 138 135 137 141 101 80 74 65 50 24 26 14 356 352 348 335 327 327 334 331 326 326 335 339 340 341 346 342 347 356 5 0
142 160 136 116 122 130 128 124 127 125 124 123 122 123 125 97 79 75 68 58 45 36 29 16 9 26 34 340 322 319 323 324 316 319 324 324 329 343 354 354 3 9 13 6
136 160 139 118 133 128 135 135 130 123 122 118 110 98 85 83 73 61 63 60 50 47 44 46 52 30 354 327 321 327 335 330 327 324 322 323 336 352 340 8 25 15 49 33
144 164 170 152 161 154 146 143 141 138 131 124 116 104 85 69 75 69 72 75 76 74 81 91 68 355 334 327 333 346 347 340 336 339 347 344 350 355 350 355 20 128 97 144